2023/01/13 00:00:00, 0.2, 4.0
2023/01/13 00:10:00, 0.3, 3.4
2023/01/13 00:20:00, 0.2, 3.8
2023/01/13 00:30:00, 0.2, 3.4
2023/01/13 00:40:00, 0.2, 2.6
2023/01/13 00:50:00, 0.2, 3.6
2023/01/13 01:00:00, 0.2, 3.7
2023/01/13 01:10:00, 0.3, 4.4
2023/01/13 01:20:00, 0.2, 4.3
2023/01/13 01:30:00, 0.2, 3.9
2023/01/13 01:40:00, 0.2, 3.2
2023/01/13 01:50:00, 0.2, 3.6
2023/01/13 02:00:00, 0.3, 3.9
2023/01/13 02:10:00, 0.2, 3.9
2023/01/13 02:20:00, 0.2, 4.2
2023/01/13 02:30:00, 0.2, 3.9
2023/01/13 02:40:00, 0.2, 5.3
2023/01/13 02:50:00, 0.2, 4.6
2023/01/13 03:00:00, 0.3, 4.6
2023/01/13 03:10:00, 0.2, 4.6
2023/01/13 03:20:00, 0.2, 5.9
2023/01/13 03:30:00, 0.1, 6.2
2023/01/13 03:40:00, 0.1, 6.5
2023/01/13 03:50:00, 0.2, 6.8
2023/01/13 04:00:00, 0.2, 6.8
2023/01/13 04:10:00, 0.2, 6.4
2023/01/13 04:20:00, 0.2, 6.7
2023/01/13 04:30:00, 0.2, 6.7
2023/01/13 04:40:00, 0.2, 6.7
2023/01/13 04:50:00, 0.1, 7.1
2023/01/13 05:00:00, 0.1, 7.4
2023/01/13 05:10:00, 0.1, 7.4
2023/01/13 05:20:00, 0.2, 7.0
2023/01/13 05:30:00, 0.2, 7.4
2023/01/13 05:40:00, 0.3, 7.6
2023/01/13 05:50:00, 0.3, 7.4
2023/01/13 06:00:00, 0.2, 7.3
2023/01/13 06:10:00, 0.2, 7.5
2023/01/13 06:20:00, 0.2, 7.6
2023/01/13 06:30:00, 0.1, 7.3
2023/01/13 06:40:00, 0.1, 7.4
2023/01/13 06:50:00, 0.1, 7.4
2023/01/13 07:00:00, 0.1, 7.5
2023/01/13 07:10:00, 0.2, 7.3
2023/01/13 07:20:00, 0.2, 7.2
2023/01/13 07:30:00, 0.3, 6.3
2023/01/13 07:40:00, 0.2, 5.5
2023/01/13 07:50:00, 0.2, 6.5
2023/01/13 08:00:00, 0.2, 7.4
2023/01/13 08:10:00, 0.2, 8.7
2023/01/13 08:20:00, 0.1, 9.1
2023/01/13 08:30:00, 0.0, 9.3
2023/01/13 08:40:00, 0.0,10.3
2023/01/13 08:50:00, 0.0,11.4
2023/01/13 09:00:00, 0.1,11.9
2023/01/13 09:10:00, 0.0,11.7
2023/01/13 09:20:00, 0.1,11.4
2023/01/13 09:30:00, 0.0,11.8
2023/01/13 09:40:00, 0.0,12.1
2023/01/13 09:50:00, 0.1,12.5
2023/01/13 10:00:00, 0.0,13.0
2023/01/13 10:10:00, 0.1,13.1
2023/01/13 10:20:00, 0.1,13.9
2023/01/13 10:30:00, 0.0,14.2
2023/01/13 10:40:00, 0.0,14.5
2023/01/13 10:50:00, 0.0,14.5
2023/01/13 11:00:00, 0.0,14.6
2023/01/13 11:10:00, 0.0,14.4
2023/01/13 11:20:00, 0.0,14.1
2023/01/13 11:30:00, 0.0,14.1
2023/01/13 11:40:00, 0.0,13.8
2023/01/13 11:50:00, 0.0,13.9
2023/01/13 12:00:00, 0.1,14.5
2023/01/13 12:10:00, 0.0,14.6
2023/01/13 12:20:00, 0.0,14.3
2023/01/13 12:30:00, 0.0,14.4
2023/01/13 12:40:00, 0.0,13.6
2023/01/13 12:50:00, 0.1,13.8
2023/01/13 13:00:00, 0.1,14.5
2023/01/13 13:10:00, 0.1,14.9
2023/01/13 13:20:00, 0.0,14.9
2023/01/13 13:30:00, 0.0,15.0
2023/01/13 13:40:00, 0.1,14.6
2023/01/13 13:50:00, 0.1,14.1
2023/01/13 14:00:00, 0.0,13.4
2023/01/13 14:10:00, 0.0,13.4
2023/01/13 14:20:00, 0.0,13.0
2023/01/13 14:30:00, 0.0,12.5
2023/01/13 14:40:00, 0.1,12.4
2023/01/13 14:50:00, 0.1,12.0
2023/01/13 15:00:00, 0.1,11.9
2023/01/13 15:10:00, 0.1,11.7
2023/01/13 15:20:00, 0.1,11.6
2023/01/13 15:30:00, 0.1,11.4
2023/01/13 15:40:00, 0.1,11.4
2023/01/13 15:50:00, 0.0,11.3
2023/01/13 16:00:00, 0.1,11.5
2023/01/13 16:10:00, 0.1,11.7
2023/01/13 16:20:00, 0.1,11.7
2023/01/13 16:30:00, 0.1,11.5
2023/01/13 16:40:00, 0.1,11.4
2023/01/13 16:50:00, 0.1,11.4
2023/01/13 17:00:00, 0.1,11.2
2023/01/13 17:10:00, 0.1,11.5
2023/01/13 17:20:00, 0.1,11.1
2023/01/13 17:30:00, 0.1,11.1
2023/01/13 17:40:00, 0.0,11.0
2023/01/13 17:50:00, 0.1,10.9
2023/01/13 18:00:00, 0.1,11.1
2023/01/13 18:10:00, 0.1,11.1
2023/01/13 18:20:00, 0.1,10.8
2023/01/13 18:30:00, 0.1,10.7
2023/01/13 18:40:00, 0.1,10.3
2023/01/13 18:50:00, 0.1,10.7
2023/01/13 19:00:00, 0.0,10.9
2023/01/13 19:10:00, 0.1,10.9
2023/01/13 19:20:00, 0.1,10.7
2023/01/13 19:30:00, 0.1,11.1
2023/01/13 19:40:00, 0.1,11.2
2023/01/13 19:50:00, 0.1,11.0
2023/01/13 20:00:00, 0.2,11.1
2023/01/13 20:10:00, 0.1,10.9
2023/01/13 20:20:00, 0.1,10.8
2023/01/13 20:30:00, 0.1,11.1
2023/01/13 20:40:00, 0.1,11.0
2023/01/13 20:50:00, 0.1,10.9
2023/01/13 21:00:00, 0.1,11.1
2023/01/13 21:10:00, 0.1,11.3
2023/01/13 21:20:00, 0.1,11.1
2023/01/13 21:30:00, 0.1,11.4
2023/01/13 21:40:00, 0.0,11.4
2023/01/13 21:50:00, 0.1,11.3
2023/01/13 22:00:00, 0.1,11.4
2023/01/13 22:10:00, 0.2,11.4
2023/01/13 22:20:00, 0.1,11.3
2023/01/13 22:30:00, 0.1,11.4
2023/01/13 22:40:00, 0.1,11.4
2023/01/13 22:50:00, 0.1,11.3
2023/01/13 23:00:00, 0.1,11.7
2023/01/13 23:10:00, 0.1,11.8
2023/01/13 23:20:00, 0.1,11.4
2023/01/13 23:30:00, 0.1,11.8
2023/01/13 23:40:00, 0.1,11.7
2023/01/13 23:50:00, 0.1,11.9
